RH
83 71 62 51 61 78 78 64 61 60 52 42 38 45 45 41 52 61 50 64 83 80 81 86 87 89 86 65 46 65 80 79 78 79 75 77 72 77 40 27 25 29 98 97 93 47 45 65 74
85 78 72 63 78 94 73 68 69 56 48 45 43 44 48 43 43 45 54 65 84 80 84 86 84 90 83 71 58 57 70 72 77 76 71 84 79 64 34 27 23 33 98 94 48 41 44 56 70
76 76 63 67 79 70 72 64 56 56 49 48 40 42 48 52 50 51 55 69 80 79 76 89 88 92 88 83 72 57 63 72 79 80 81 82 76 48 34 27 22 25 68 41 40 43 46 42 61
73 71 59 80 80 74 57 53 60 57 57 53 43 40 44 49 52 60 64 68 68 80 69 86 92 96 89 90 84 61 62 64 74 82 85 86 78 52 38 30 22 22 29 36 40 42 48 48 37
74 67 77 86 86 74 65 57 60 57 55 55 49 48 42 45 52 57 64 72 69 76 73 82 95 98 94 91 88 75 70 66 70 74 85 88 87 66 45 34 25 21 29 37 40 41 45 49 36
77 64 86 85 77 72 62 60 56 52 51 47 47 48 43 44 54 65 90 89 79 74 84 84 82 97 98 93 88 84 78 68 75 75 79 81 88 81 54 42 31 25 30 39 46 46 35 40 39
73 74 81 85 78 70 62 55 57 56 52 47 41 44 42 43 53 76 100 100 98 92 88 78 74 74 81 84 76 74 77 79 83 72 81 82 83 88 63 52 42 32 32 38 47 51 44 42 39
52 59 81 78 68 69 58 51 50 53 52 46 42 43 38 38 52 73 100 99 100 100 100 98 90 92 72 76 73 75 78 86 97 83 65 61 86 96 75 65 56 43 42 48 53 56 61 55 62
49 66 74 73 69 58 42 52 46 37 39 40 39 37 36 35 52 84 100 100 100 100 100 100 100 97 91 86 80 84 87 90 99 99 83 74 98 97 90 80 70 61 55 56 60 63 72 76 78
54 67 53 59 52 44 27 45 41 33 36 36 33 31 31 35 47 92 100 99 100 100 100 100 100 100 99 99 91 99 100 99 100 100 96 80 93 98 89 95 91 83 71 66 65 68 72 78 81
46 56 43 35 33 36 32 28 22 27 32 33 34 31 36 40 55 91 100 100 99 100 100 100 100 100 100 100 99 90 100 100 99 100 100 99 98 98 99 99 100 100 92 83 75 76 72 79 84
46 44 38 36 32 28 28 24 25 30 42 40 36 38 41 48 92 99 100 100 100 100 100 100 100 100 100 100 100 100 96 100 100 100 100 100 100 100 100 98 99 100 100 92 87 85 83 80 85
42 37 37 37 33 31 30 31 29 48 45 44 40 44 56 86 99 99 100 100 100 100 100 100 100 100 100 100 100 100 97 97 99 93 88 99 99 100 100 100 100 100 100 100 100 94 89 90 86
27 30 28 26 29 38 36 32 27 47 55 59 62 76 93 100 98 100 100 100 100 100 100 100 100 100 100 100 100 99 100 99 98 96 94 97 89 89 99 100 98 87 89 99 100 100 100 99 94
30 33 30 29 30 33 34 38 40 58 62 73 84 98 99 99 100 100 100 100 100 100 100 100 99 100 100 99 100 96 100 100 95 92 91 99 89 98 98 96 99 100 97 97 98 96 98 100 100
28 31 40 31 33 31 32 39 63 63 63 76 82 88 91 89 89 87 85 82 83 81 81 83 85 90 95 99 99 99 96 100 93 93 93 89 83 80 98 100 92 97 100 100 98 100 94 95 93
36 43 41 34 36 36 38 44 76 76 68 82 77 72 72 72 70 66 63 60 57 55 53 52 52 54 60 69 90 100 99 100 98 93 96 100 85 76 82 100 100 99 95 100 100 100 100 99 99
46 45 38 38 35 42 55 83 82 88 83 92 86 76 69 65 62 60 57 56 55 53 51 48 45 44 44 48 56 77 88 93 98 100 99 99 99 90 72 82 94 98 99 100 100 100 100 100 100
51 50 42 32 50 60 79 88 89 87 92 94 94 84 77 68 66 63 60 57 54 51 48 44 39 36 37 38 42 48 64 78 87 95 98 100 99 100 99 90 81 97 100 99 99 98 99 100 100
47 48 44 42 61 60 82 96 90 88 93 100 98 92 83 75 68 63 61 58 54 50 46 40 33 28 28 30 32 35 41 54 66 77 87 91 98 100 100 99 96 98 100 99 100 97 98 100 98
50 56 47 41 66 68 70 80 87 90 94 98 97 93 89 80 72 66 64 62 57 51 44 36 30 26 24 22 20 19 21 25 37 58 72 79 87 97 100 100 99 100 100 97 96 93 93 96 98
47 45 41 58 64 63 71 86 93 91 95 92 98 98 86 81 79 74 69 67 62 54 45 36 28 24 22 22 21 19 18 16 14 15 28 50 65 82 97 99 98 98 100 98 100 95 95 95 90
48 40 50 58 71 71 74 86 79 91 97 97 96 100 92 86 74 74 75 70 67 61 50 40 31 26 24 22 20 20 17 14 13 12 10 10 21 51 52 80 93 95 98 98 97 99 93 95 92
48 63 71 77 74 93 77 77 89 89 90 90 94 100 100 99 100 78 73 79 72 67 58 47 38 31 25 21 18 17 18 17 16 15 13 11 10 10 21 51 67 75 76 84 94 98 96 96 98
85 96 96 96 96 91 87 78 93 96 95 87 96 100 98 98 100 99 84 82 76 70 63 60 54 39 28 22 22 23 24 23 21 17 15 13 12 12 11 10 18 36 29 32 39 52 70 87 92
84 95 94 92 94 92 92 94 93 94 97 98 98 100 100 99 99 99 96 90 78 70 66 68 65 50 31 25 27 26 25 23 22 20 20 19 17 16 14 12 11 11 14 13 12 13 17 30 58
96 96 95 95 92 88 94 90 89 93 92 94 98 99 100 99 98 100 98 88 77 71 70 74 74 58 33 27 29 30 29 28 28 27 25 23 21 19 17 15 13 12 10 10 11 11 10 13 14
95 95 95 96 95 95 96 95 86 96 93 92 94 98 100 100 98 97 96 97 94 86 83 85 83 66 31 26 28 30 31 30 29 28 27 27 26 25 23 21 19 17 15 13 11 10 10 11 13
87 94 93 95 94 94 97 89 84 92 91 93 95 96 96 96 96 96 97 98 97 96 96 96 92 65 29 25 25 26 27 30 31 30 30 30 30 30 29 28 27 25 22 19 16 14 12 12 12
94 95 94 95 94 94 92 86 95 92 95 95 96 96 96 96 96 96 97 99 98 93 93 92 69 49 35 28 27 27 28 28 28 28 28 29 29 29 29 29 30 30 29 27 24 21 18 16 14
Wind_Speed
14 13 9 5 1 1 3 5 1 2 3 4 2 4 9 16 3 2 2 8 16 25 24 23 22 19 19 17 19 20 19 16 14 13 12 12 11 9 8 9 11 12 17 16 14 14 15 15 15
12 12 11 3 2 5 4 4 9 9 3 2 2 2 4 10 8 2 3 6 16 23 24 25 23 20 20 18 18 20 19 17 15 15 15 15 12 9 9 10 10 13 17 15 15 16 15 14 14
12 15 9 3 4 10 4 6 12 9 14 2 1 4 3 3 9 5 2 6 14 21 23 22 22 19 20 19 18 19 18 17 16 16 16 16 13 11 11 11 11 13 14 14 15 15 13 13 13
11 9 4 3 15 4 5 2 5 2 5 12 5 3 3 5 5 11 12 11 11 18 21 19 20 19 19 19 19 18 17 17 16 16 16 16 13 12 12 12 12 14 14 14 14 13 13 12 13
14 4 2 5 11 3 4 2 5 3 2 5 9 2 2 6 10 14 16 14 14 16 21 19 20 16 18 18 18 17 16 17 17 17 16 16 15 13 13 14 13 14 15 14 13 13 11 11 11
8 3 3 17 11 4 4 9 4 1 2 1 3 4 3 5 11 18 18 17 18 17 22 22 24 21 19 16 15 16 16 16 16 17 18 16 16 14 13 14 14 15 15 14 12 11 11 12 12
5 3 7 3 3 5 6 15 4 7 10 10 3 2 3 10 14 17 19 19 19 21 24 27 21 20 23 24 22 20 19 17 17 17 20 19 17 15 15 15 15 16 15 15 14 12 12 14 13
5 2 3 6 11 6 5 9 13 15 9 7 7 4 3 10 17 22 22 20 20 19 21 25 30 28 24 22 23 23 23 22 20 18 18 21 23 20 18 17 16 16 15 14 14 13 13 13 13
6 3 12 8 7 3 3 3 13 5 8 8 7 7 4 5 20 25 23 19 18 21 23 24 27 28 25 21 22 22 22 22 20 19 19 19 20 20 20 19 17 17 16 15 13 14 13 12 11
5 4 8 3 6 2 2 5 4 4 6 5 8 9 11 8 20 26 25 23 21 20 19 23 24 27 27 27 22 19 22 22 23 22 20 20 22 22 21 20 18 18 18 17 15 14 14 12 10
6 8 3 2 4 6 5 4 7 3 3 4 6 13 18 16 24 29 27 24 21 19 20 19 18 19 21 25 25 23 27 24 25 25 22 20 22 24 22 21 21 19 19 17 16 14 14 12 11
3 8 7 2 7 2 2 1 1 2 2 8 10 12 13 18 23 29 27 24 21 20 17 17 17 16 16 17 21 26 23 16 21 26 21 20 20 22 23 23 21 21 20 21 19 17 14 13 12
4 2 4 16 18 15 8 5 3 2 5 6 6 7 13 19 24 25 24 21 18 17 15 13 14 14 15 17 20 21 20 14 8 6 8 6 8 13 21 24 21 21 21 21 23 20 18 15 13
3 8 11 15 13 9 7 5 7 1 4 1 2 7 12 17 19 20 19 17 15 14 13 12 10 11 12 12 10 12 15 14 6 4 1 4 7 7 16 18 21 22 22 21 19 16 18 20 17
5 5 5 4 6 7 9 7 4 6 4 8 9 11 14 15 15 16 15 12 11 10 9 9 9 9 9 9 12 12 15 12 7 6 5 5 1 5 5 5 16 20 23 24 23 22 20 15 17
2 3 5 4 7 6 14 13 2 5 10 12 14 15 15 15 13 12 11 10 8 6 5 6 6 7 9 9 10 10 12 13 12 12 12 13 11 10 11 10 10 17 19 25 26 25 24 23 22
2 3 5 4 8 3 6 5 5 5 12 13 14 15 16 15 13 11 10 9 8 7 6 5 5 6 7 9 10 9 9 11 13 13 13 14 14 6 12 12 11 12 14 22 22 27 28 28 28
6 4 4 5 2 2 3 3 6 9 10 11 13 15 16 15 13 11 10 8 6 6 5 5 5 5 5 6 8 10 12 12 13 14 16 17 13 12 12 15 13 15 12 16 19 21 26 28 30
4 3 5 3 3 4 1 5 4 6 9 9 11 12 13 14 12 11 9 7 6 5 5 4 5 6 5 5 6 7 9 11 12 12 13 13 14 17 16 14 13 15 13 12 11 14 20 20 25
6 7 7 0 3 3 3 3 3 4 3 4 6 9 9 11 11 10 9 7 7 6 5 6 5 5 6 5 5 6 7 8 9 10 11 12 14 14 14 14 13 15 10 6 7 7 12 18 15
8 11 8 7 3 4 7 2 4 3 4 5 7 6 6 7 9 8 7 7 6 6 7 6 6 6 5 6 5 5 6 5 6 6 7 10 11 12 13 14 13 11 8 8 8 7 8 11 12
10 8 11 7 7 5 2 4 5 5 3 2 2 4 4 3 5 7 8 7 6 6 6 6 6 6 6 4 4 5 5 6 5 4 4 4 6 8 9 11 13 11 11 9 7 6 3 3 8
4 2 9 9 7 5 5 3 1 6 5 5 2 1 3 2 3 6 8 9 7 6 6 6 5 5 5 5 4 4 4 4 4 4 4 3 2 2 3 6 8 9 10 10 9 6 8 7 2
0 2 2 2 5 8 10 9 4 7 5 7 4 2 3 4 3 4 8 10 10 7 6 6 6 5 4 5 4 4 3 4 5 4 3 3 2 1 1 2 3 7 7 8 7 5 7 7 4
3 3 3 4 5 3 1 9 2 2 2 6 8 7 6 6 5 4 7 10 13 9 7 6 5 5 4 4 5 4 4 4 3 4 4 4 2 2 1 1 0 1 2 3 3 3 6 6 8
2 2 2 4 4 3 2 6 2 2 8 12 11 9 8 9 9 8 8 10 12 10 8 5 4 4 4 4 3 4 4 4 5 4 4 3 3 2 2 2 1 1 2 3 3 4 5 5 6
2 4 2 1 2 2 2 3 3 4 8 9 10 10 10 9 10 11 9 9 10 9 7 4 2 2 4 5 4 4 5 4 4 4 4 4 3 1 1 1 2 2 2 2 4 4 5 6 6
3 2 1 2 3 4 1 3 2 7 8 7 7 10 12 12 9 8 9 8 7 7 6 4 3 1 3 5 6 5 5 4 4 3 3 2 3 3 2 1 1 1 2 3 3 3 5 6 6
5 2 3 1 2 1 2 3 3 4 7 8 7 10 12 13 14 13 13 10 6 5 5 5 4 2 3 3 4 4 4 4 3 3 3 2 2 2 2 1 0 0 0 1 2 3 4 4 5
2 1 1 1 2 3 1 1 1 4 5 10 10 10 10 12 14 14 14 13 13 11 8 5 4 3 3 3 2 2 3 3 3 3 3 2 2 2 1 1 1 1 1 2 1 2 2 3 4
Wind_Direction
196 199 185 171 148 53 234 233 259 215 216 213 191 182 200 182 167 220 128 182 188 178 177 179 170 169 166 170 172 174 176 176 177 169 169 166 155 144 129 129 134 132 130 127 127 120 124 123 116
187 189 174 166 196 218 222 224 216 217 185 86 161 217 152 213 189 213 170 184 183 184 177 177 174 172 172 172 174 174 179 176 173 170 165 159 153 146 135 131 133 137 137 138 122 119 118 127 126
179 179 170 184 195 225 207 214 232 241 227 183 179 234 209 190 207 183 162 176 182 185 183 178 174 177 179 175 178 175 176 175 172 168 164 163 159 150 140 136 135 143 141 129 127 122 116 118 135
170 179 176 223 230 243 188 245 201 217 235 227 218 243 245 223 194 184 175 195 195 184 184 183 179 181 177 178 175 176 173 173 175 173 170 167 163 152 147 142 140 143 142 138 130 124 119 117 118
174 159 210 247 243 228 233 208 144 138 160 182 185 236 243 225 212 194 182 190 182 186 185 182 185 183 181 178 176 178 176 176 177 179 175 172 167 156 152 146 143 145 146 143 132 126 122 119 111
176 149 204 233 224 215 243 230 238 211 219 69 185 183 227 224 209 186 175 182 177 184 185 192 192 185 178 175 183 185 186 187 186 188 183 178 174 165 160 151 148 150 150 146 136 127 123 125 113
172 132 231 264 273 209 198 226 193 231 247 251 218 179 232 199 195 190 176 178 185 182 192 194 195 206 192 180 184 182 176 180 186 189 188 181 181 176 169 161 154 155 156 152 142 134 127 127 120
171 181 236 222 244 255 207 213 223 220 248 230 199 218 218 208 195 188 183 178 175 189 195 193 187 192 206 199 189 188 187 184 183 181 180 188 180 178 174 169 163 161 160 161 152 146 137 132 124
158 214 235 226 177 214 188 180 223 212 203 198 209 200 212 208 193 186 187 185 177 183 187 194 193 193 195 213 206 195 193 188 189 185 183 177 176 178 182 176 173 171 172 173 170 159 154 146 136
172 214 231 193 173 182 205 201 216 188 191 214 216 221 245 226 202 188 187 188 183 178 178 188 187 193 191 200 212 210 201 191 183 186 190 191 180 182 189 187 184 181 184 183 185 178 172 165 155
197 233 190 178 202 214 219 212 233 184 207 218 227 235 232 210 198 193 191 192 189 184 176 174 181 178 181 192 199 213 195 197 192 190 192 189 184 185 191 188 188 191 191 194 196 196 189 184 170
230 236 229 227 230 128 220 246 164 211 307 292 268 244 228 203 191 195 192 190 189 188 180 180 174 173 175 174 175 187 203 175 170 181 190 185 187 190 190 197 198 198 203 194 201 204 206 197 191
231 238 219 237 245 253 263 246 245 68 332 304 273 224 207 185 187 192 195 190 192 192 188 184 175 167 162 165 162 151 155 161 238 287 266 190 190 212 204 203 206 206 206 202 201 202 207 210 202
230 221 245 253 250 230 222 244 191 124 21 15 162 157 173 171 181 182 189 191 195 197 198 193 190 187 182 187 181 165 162 156 181 121 294 236 275 229 236 205 203 212 214 217 209 195 201 201 204
259 262 294 224 219 218 212 236 163 342 117 120 127 135 148 164 170 177 184 190 188 197 198 197 193 192 190 186 188 195 155 173 243 229 174 151 348 296 275 284 235 208 209 215 215 213 214 216 198
235 164 239 212 174 231 172 241 49 5 153 120 127 133 138 141 154 155 162 175 188 200 213 218 221 215 211 201 200 203 189 166 181 226 197 228 250 280 294 269 267 247 227 212 212 213 211 214 218
288 225 217 291 199 139 193 188 7 56 142 118 123 129 135 134 138 143 149 157 167 180 188 202 216 225 218 214 214 208 209 194 190 201 223 202 209 227 264 268 267 247 265 242 216 207 210 213 214
207 220 227 205 192 109 120 94 29 35 117 113 118 125 129 134 130 133 139 146 152 165 179 179 183 200 200 207 212 213 219 215 207 201 209 212 209 203 220 265 279 269 260 253 246 229 207 211 213
148 190 223 239 22 101 20 115 70 67 76 84 108 120 123 128 129 133 133 133 138 142 153 156 154 163 179 182 187 199 204 212 216 214 208 221 217 204 210 216 261 267 251 252 247 251 244 223 217
197 216 232 197 38 116 149 103 69 59 75 86 103 109 122 129 136 136 133 131 137 144 150 152 156 153 156 162 167 177 189 190 206 219 221 217 223 222 209 212 221 231 219 255 283 276 252 241 240
218 216 214 222 126 71 133 157 184 80 103 88 82 100 122 135 143 144 139 129 128 135 146 155 158 161 162 163 165 165 170 182 189 197 211 217 221 229 218 217 204 214 220 237 270 284 278 256 231
232 204 216 167 166 213 195 243 220 175 165 98 76 49 85 130 164 166 163 153 136 136 144 153 155 159 168 171 162 169 173 174 171 166 180 207 213 224 224 218 214 214 219 214 229 248 229 258 244
238 216 198 186 177 134 192 216 160 147 201 192 160 41 74 85 178 187 185 183 163 145 145 152 160 166 169 177 181 178 184 181 159 158 157 174 177 207 223 227 227 221 226 210 200 217 214 158 192
334 108 78 92 186 218 190 194 207 189 199 170 169 107 76 62 73 182 182 183 177 160 147 151 152 165 166 166 173 189 190 166 159 160 151 142 151 165 225 256 230 235 226 217 204 202 205 176 195
73 175 191 198 196 218 275 181 224 289 211 155 146 120 102 88 85 97 158 169 174 166 153 142 142 148 158 160 164 164 165 167 166 160 162 155 145 130 145 153 195 242 248 256 243 242 255 228 234
212 226 213 204 196 167 133 198 135 242 111 116 121 109 112 96 95 96 120 150 163 165 159 146 135 137 147 155 157 165 165 161 163 164 169 162 160 151 141 134 169 202 225 226 235 232 254 237 240
101 225 308 88 82 138 101 341 324 148 122 118 115 106 95 101 98 100 109 131 150 160 165 161 147 146 151 153 159 160 166 166 161 157 157 156 158 154 153 161 173 170 197 227 236 235 244 254 246
340 344 225 196 211 221 23 258 197 177 149 135 121 112 106 94 102 105 111 125 146 165 179 189 200 191 167 172 173 175 171 171 173 171 167 152 144 145 149 166 186 165 168 187 202 222 227 234 236
348 9 356 326 9 191 150 262 222 181 148 142 132 115 107 104 99 92 90 94 116 149 160 180 186 191 192 185 184 181 179 178 174 176 175 177 172 163 157 160 164 235 275 242 208 200 208 220 233
86 48 297 342 359 44 113 283 319 228 135 136 133 127 115 109 104 101 97 95 94 96 106 120 139 161 181 198 212 217 217 210 207 208 203 197 196 212 217 205 208 227 215 232 245 247 230 217 218